Weather History for Beira, Mozambique

Change the Weather History Date:

Saturday, January 19, 2013

  Actual Average Record
Temperature  
Mean Temperature 84 °F -  
Max Temperature 89 °F 85 °F - ()
Min Temperature 78 °F 77 °F - ()
Cooling Degree Days 18    
Growing Degree Days 34 (Base 50)    
Moisture  
Dew Point 76 °F    
Average Humidity 75    
Maximum Humidity 94    
Minimum Humidity 60    
Precipitation  
Precipitation 0.00 in - - ()
Sea Level Pressure  
Sea Level Pressure 29.74 in    
Wind  
Wind Speed - ()    
Max Wind Speed -    
Max Gust Speed -    
Visibility 15.6 miles    
Events      
T = Trace of Precipitation, MM = Missing Value Source: Averaged Metar Reports

Daily Weather History Graph

Daily Weather History Graph

Search for Another Location

Airport:

Trip Planner

Search our weather history database for the weather conditions in past years. The results will help you decide how hot, cold, wet, or windy it might be!

Date:

Astronomy

Jan. 19, 2013 Rise Set
Actual Time 5:16 AM CAT 6:25 PM CAT
Civil Twilight 4:52 AM CAT 6:49 PM CAT
Nautical Twilight 4:24 AM CAT 7:17 PM CAT
Astronomical Twilight 3:55 AM CAT 7:46 PM CAT
Moon 12:12 PM CAT (1/19) 11:47 PM CAT (1/19)
Length of Visible Light 13h 56m
Length of Day
13h 08m
First Quarter, 54% of the Moon is Illuminated
Jan 19
First Quarter
Jan 27
Full
Feb 3
Last Quarter
Feb 10
New
Feb 17
First Quarter

Hourly Weather History & Observations

Time (CAT) Temp. Heat Index Dew Point Humidity Pressure Visibility Wind Dir Wind Speed Gust Speed Precip Events Conditions
12:00 AM 80.6 °F 87.1 °F 77.0 °F 89% 29.80 in - North - - N/A   Partly Cloudy
1:00 AM 80.6 °F 87.1 °F 77.0 °F 89% 29.77 in - North - - N/A   Partly Cloudy
2:00 AM 80 °F - 78 °F 92% 29.78 in 9 mi Calm Calm - -   Scattered Clouds
5:00 AM 79 °F - 76 °F 90% 29.77 in 12 mi Calm Calm - -   Scattered Clouds
5:00 AM 78.8 °F - 77.0 °F 94% 29.77 in - North - - N/A   Partly Cloudy
7:00 AM 80.6 °F 86.2 °F 75.2 °F 84% 29.80 in - North - - N/A   Partly Cloudy
8:00 AM 82 °F - 76 °F 76% 29.79 in 19 mi Calm Calm - -   Partly Cloudy
8:00 AM 82.4 °F 89.5 °F 75.2 °F 79% 29.77 in - North - - N/A   Scattered Clouds
9:00 AM 84.2 °F 94.1 °F 77.0 °F 79% 29.77 in - North - - N/A   Partly Cloudy
10:00 AM 87.8 °F 97.6 °F 75.2 °F 66% 29.77 in - North - - N/A   Partly Cloudy
11:00 AM 89 °F - 78 °F 62% 29.77 in 19 mi Calm Calm - -   Scattered Clouds
11:00 AM 89.6 °F 102.2 °F 77.0 °F 66% 29.77 in - North - - N/A   Partly Cloudy
12:00 PM 89.6 °F 102.2 °F 77.0 °F 66% 29.74 in - North - - N/A   Partly Cloudy
1:00 PM 89.6 °F 102.2 °F 77.0 °F 66% 29.74 in - North - - N/A   Partly Cloudy
2:00 PM 89.6 °F 99.8 °F 75.2 °F 62% 29.68 in - North - - N/A   Partly Cloudy
3:00 PM 87.8 °F 97.6 °F 75.2 °F 66% 29.68 in - North - - N/A   Partly Cloudy
4:00 PM 87.8 °F 97.6 °F 75.2 °F 66% 29.65 in - North - - N/A   Partly Cloudy
5:00 PM 87 °F - 75 °F 60% 29.68 in 19 mi Calm Calm - -   Scattered Clouds
5:00 PM 87.8 °F 97.6 °F 75.2 °F 66% 29.68 in - North - - N/A   Partly Cloudy
6:00 PM 84.2 °F 92.3 °F 75.2 °F 74% 29.68 in - North - - N/A   Partly Cloudy
9:00 PM 82.4 °F 90.9 °F 77.0 °F 84% 29.74 in - North - - N/A   Partly Cloudy
10:00 PM 82.4 °F 90.9 °F 77.0 °F 84% 29.77 in - North - - N/A   Partly Cloudy